Regional Weather Roundup
Issued by NWS Cleveland, OH

Home | Current Version | Previous Version | Text Only | Print | Product List | Glossary Off
Versions: 1 2 3 4 5 6 7 8 9 10 11 12 13 14 15 16 17 18 19 20 21 22 23 24 25 26 27 28 29 30 31 32 33 34 35 36 37 38 39 40 41 42 43 44 45 46 47 48 49 50

293
ASUS41 KCLE 241612
RWRCLE
OHIO REGIONAL WEATHER ROUNDUP
NATIONAL WEATHER SERVICE WILMINGTON, OH
1200 PM EDT MON JUL 24 2017

NOTE: "FAIR" INDICATES FEW OR NO CLOUDS BELOW 12,000 FEET WITH NO
SIGNIFICANT WEATHER AND/OR OBSTRUCTIONS TO VISIBILITY.

OHZ001>008-015>018-024>027-034-035-043-044-241700-
   NORTHWEST OHIO

CITY           SKY/WX    TMP DP  RH WIND       PRES   REMARKS
DEFIANCE       CLOUDY   N/A N/A N/A N10       29.98R
FINDLAY        PTSUNNY   73  59  61 N13G23    29.96R
TOLEDO EXPRESS CLOUDY    67  58  72 N10       29.97R
TOLEDO EXEC    CLOUDY    70  59  68 NW13      29.97R
LIMA           PTSUNNY   72  64  76 N8        29.97R
$$

OHZ009>014-019>023-028>033-038-089-241700-
   NORTHEAST OHIO

CITY           SKY/WX    TMP DP  RH WIND       PRES   REMARKS
CLE-HOPKINS    CLOUDY    72  62  71 N14       29.93R
CLE-LAKEFRONT  CLOUDY    70  61  73 NW18G24   29.90R
CUY CO. ARPT   CLOUDY    70  63  78 N12       29.92R
LORAIN-ELYRIA  CLOUDY    70  58  65 N8        29.93R
ASHTABULA      PTSUNNY   70  62  76 NW16G25   29.89R
AKRON-CANTON   PTSUNNY   77  64  64 NW10      29.89S
WOOSTER        FAIR      76  66  71 NW12      29.91S
MANSFIELD      PTSUNNY   76  65  68 NW10      29.93R
YOUNGSTOWN     PTSUNNY   75  64  68 NW17      29.88R
$$

OHZ042-051>053-060>062-070>072-077>081-241700-
  SOUTHWEST OHIO

CITY           SKY/WX    TMP DP  RH WIND       PRES   REMARKS
CINC-COVINGTON FAIR      82  71  69 NW9       29.94R
CINC-LUNKEN    FAIR      82  71  69 NW12      29.93R
HAMILTON       FAIR      81  69  67 NW3       29.94S
DAYTON         FAIR      77  65  66 N15       29.96R
WRIGHT-PAT AFB FAIR      79  67  66 N10       29.93S
DAYTON GENERAL FAIR      80  65  59 N9        29.94R
WILMINGTON     FAIR      79  68  69 NW10      29.94R
$$

OHZ036-037-039>041-045>050-054>059-063>069-073>076-082>088-241700-
  CENTRAL AND SOUTHEAST OHIO

CITY           SKY/WX    TMP DP  RH WIND       PRES   REMARKS
COLUMBUS       FAIR      79  69  71 N12       29.90S
OSU AIRPORT    FAIR      78  68  71 NW16      29.92R
BOLTON FIELD   SUNNY     79  70  73 NW10      29.92S
RICKENBACK AFB FAIR      78  67  69 NW9       29.91R
NEWARK         FAIR      80  67  64 NW9       29.90R
MARION         CLOUDY    75  62  64 NW13      29.94R
LANCASTER      FAIR      72  69  90 NW7       29.91S
ZANESVILLE     PTSUNNY   77  69  76 VRB7      29.90R
NEW PHILLY     PTSUNNY   76  70  82 N8        29.89S
$$




USA.gov is the U.S. government's official web portal to all federal, state and local government web resources and services.